When you browse on this site, cookies collect data to enhance your experience and personalize the content and advertising you see.
Visit our Privacy Policy to learn more. By continuing to use the site, you agree to this use of cookies and data.
  • In Hungary
  • List of Countries
  • For 7 days
  • Water Temperature
  • Weather Map
  • News
  • Weather Widgets
  • user-avatar
    Login

    Hourly Weather Zd'ar nad Sazavou

    Today, 17 August, Saturday

    Time Temperature Precipitation Wind Pressure Humidity
    00:00 +13°C° 0 mm 1 mps 711 mmHg 83%
    01:00 +12°C° 0 mm 1 mps 711 mmHg 81%
    02:00 +12°C° 0 mm 1 mps 711 mmHg 82%
    03:00 +12°C° 0 mm 1 mps 710 mmHg 83%
    04:00 +12°C° 0 mm 1 mps 710 mmHg 84%
    05:00 +13°C° 0 mm 1 mps 710 mmHg 82%
    06:00 +14°C° 0 mm 1 mps 711 mmHg 79%
    07:00 +15°C° 0 mm 1 mps 711 mmHg 77%
    08:00 +16°C° 0 mm 2 mps 711 mmHg 72%
    09:00 +18°C° 0 mm 3 mps 711 mmHg 66%
    10:00 +20°C° 0 mm 4 mps 711 mmHg 61%
    11:00 +20°C° 0 mm 3 mps 711 mmHg 58%
    12:00 +21°C° 0 mm 3 mps 711 mmHg 54%
    13:00 +22°C° 0 mm 3 mps 711 mmHg 51%
    14:00 +22°C° 0 mm 3 mps 710 mmHg 53%
    15:00 +22°C° 0 mm 3 mps 710 mmHg 55%
    16:00 +22°C° 0 mm 3 mps 710 mmHg 57%
    17:00 +21°C° 0 mm 2 mps 710 mmHg 60%
    18:00 +20°C° 0 mm 2 mps 710 mmHg 63%
    19:00 +18°C° 0 mm 2 mps 709 mmHg 66%
    20:00 +19°C° 0 mm 1 mps 709 mmHg 66%
    21:00 +19°C° 0 mm 1 mps 710 mmHg 66%
    22:00 +19°C° 0 mm 1 mps 710 mmHg 67%
    23:00 +19°C° 0 mm 1 mps 709 mmHg 67%

    Tomorrow, 18 August, Sunday

    Time Temperature Precipitation Wind Pressure Humidity
    00:00 +19°C° 0 mm 1 mps 709 mmHg 68%
    01:00 +19°C° 0 mm 1 mps 709 mmHg 69%
    02:00 +18°C° 0 mm 1 mps 709 mmHg 70%
    03:00 +17°C° 0 mm 2 mps 709 mmHg 72%
    04:00 +17°C° 0 mm 2 mps 708 mmHg 73%
    05:00 +17°C° 0 mm 2 mps 708 mmHg 74%
    06:00 +18°C° 0 mm 2 mps 708 mmHg 74%
    07:00 +18°C° 0 mm 2 mps 708 mmHg 74%
    08:00 +20°C° 0 mm 3 mps 709 mmHg 69%
    09:00 +22°C° 0 mm 3 mps 709 mmHg 64%
    10:00 +25°C° 0 mm 4 mps 709 mmHg 59%
    11:00 +26°C° 0 mm 4 mps 709 mmHg 56%
    12:00 +27°C° 0 mm 5 mps 709 mmHg 52%
    13:00 +28°C° 0 mm 5 mps 709 mmHg 49%
    14:00 +28°C° 0 mm 5 mps 709 mmHg 48%
    15:00 +29°C° 0 mm 4 mps 709 mmHg 48%
    16:00 +29°C° 0 mm 4 mps 709 mmHg 47%
    17:00 +27°C° 0 mm 3 mps 709 mmHg 53%
    18:00 +26°C° 0 mm 2 mps 708 mmHg 59%
    19:00 +24°C° 0 mm 1 mps 708 mmHg 65%
    20:00 +23°C° 0 mm 1 mps 708 mmHg 66%
    21:00 +22°C° 0 mm 1 mps 709 mmHg 68%
    22:00 +19°C° 0 mm 0 mps 709 mmHg 70%
    23:00 +21°C° 0 mm 1 mps 709 mmHg 72%

    Day after tomorrow, 19 August, Monday

    Time Temperature Precipitation Wind Pressure Humidity
    00:00 +20°C° 0 mm 1 mps 709 mmHg 74%
    01:00 +19°C° 0 mm 1 mps 709 mmHg 76%
    02:00 +18°C° 0.1 mm 2 mps 709 mmHg 81%
    03:00 +17°C° 0.1 mm 2 mps 710 mmHg 87%
    04:00 +17°C° 0.1 mm 3 mps 710 mmHg 92%
    05:00 +17°C° 0 mm 3 mps 710 mmHg 89%
    06:00 +18°C° 0 mm 2 mps 711 mmHg 85%
    07:00 +18°C° 0 mm 2 mps 711 mmHg 81%
    08:00 +19°C° 0 mm 3 mps 712 mmHg 77%
    09:00 +20°C° 0 mm 3 mps 712 mmHg 73%
    10:00 +21°C° 0 mm 3 mps 712 mmHg 69%
    11:00 +20°C° 0.1 mm 4 mps 713 mmHg 73%
    12:00 +19°C° 0.1 mm 4 mps 713 mmHg 77%
    13:00 +19°C° 0.1 mm 4 mps 713 mmHg 82%
    14:00 +19°C° 0 mm 4 mps 713 mmHg 81%
    15:00 +19°C° 0 mm 3 mps 713 mmHg 80%
    16:00 +19°C° 0 mm 3 mps 713 mmHg 79%
    17:00 +18°C° 0 mm 2 mps 713 mmHg 82%
    18:00 +19°C° 0 mm 1 mps 713 mmHg 86%
    19:00 +18°C° 0 mm 1 mps 713 mmHg 89%
    20:00 +18°C° 0 mm 1 mps 713 mmHg 89%
    21:00 +18°C° 0 mm 1 mps 713 mmHg 89%
    22:00 +16°C° 0 mm 0 mps 714 mmHg 89%
    23:00 +15°C° 0 mm 0 mps 713 mmHg 89%

    20 August, Tuesday

    Time Temperature Precipitation Wind Pressure Humidity
    00:00 +15°C° 0 mm 0 mps 713 mmHg 89%
    01:00 +15°C° 0 mm 0 mps 713 mmHg 90%
    02:00 +16°C° 0 mm 1 mps 713 mmHg 89%
    03:00 +16°C° 0 mm 1 mps 713 mmHg 89%
    04:00 +16°C° 0 mm 1 mps 713 mmHg 89%
    05:00 +16°C° 0 mm 1 mps 713 mmHg 88%
    06:00 +16°C° 0 mm 1 mps 713 mmHg 86%
    07:00 +18°C° 0 mm 1 mps 714 mmHg 85%
    08:00 +19°C° 0.1 mm 1 mps 714 mmHg 82%
    09:00 +18°C° 0.1 mm 2 mps 714 mmHg 79%
    10:00 +19°C° 0.1 mm 3 mps 714 mmHg 77%
    11:00 +21°C° 0 mm 3 mps 713 mmHg 69%
    12:00 +24°C° 0 mm 3 mps 713 mmHg 62%
    13:00 +25°C° 0 mm 4 mps 713 mmHg 55%
    14:00 +25°C° 0 mm 4 mps 712 mmHg 57%
    15:00 +25°C° 0 mm 3 mps 712 mmHg 59%
    16:00 +25°C° 0 mm 3 mps 712 mmHg 61%
    17:00 +24°C° 0.7 mm 3 mps 711 mmHg 67%
    18:00 +23°C° 0.7 mm 2 mps 711 mmHg 74%
    19:00 +22°C° 0.7 mm 1 mps 711 mmHg 80%
    20:00 +19°C° 2.4 mm 3 mps 711 mmHg 85%
    21:00 +17°C° 2.4 mm 6 mps 712 mmHg 90%
    22:00 +16°C° 2.4 mm 8 mps 712 mmHg 95%
    23:00 +15°C° 1.9 mm 8 mps 713 mmHg 94%

    21 August, Wednesday

    Time Temperature Precipitation Wind Pressure Humidity
    00:00 +13°C° 1.9 mm 8 mps 713 mmHg 94%
    01:00 +13°C° 1.9 mm 8 mps 714 mmHg 93%
    02:00 +12°C° 0 mm 7 mps 714 mmHg 93%
    03:00 +13°C° 0 mm 6 mps 715 mmHg 93%
    04:00 +13°C° 0 mm 5 mps 715 mmHg 93%
    05:00 +13°C° 0 mm 5 mps 716 mmHg 90%
    06:00 +13°C° 0 mm 4 mps 716 mmHg 88%
    07:00 +14°C° 0 mm 4 mps 717 mmHg 86%
    08:00 +15°C° 0 mm 4 mps 717 mmHg 81%
    09:00 +17°C° 0 mm 3 mps 717 mmHg 76%
    10:00 +18°C° 0 mm 3 mps 718 mmHg 70%
    11:00 +19°C° 0.2 mm 3 mps 718 mmHg 69%
    12:00 +20°C° 0.2 mm 3 mps 718 mmHg 67%
    13:00 +20°C° 0.2 mm 3 mps 718 mmHg 65%
    14:00 +20°C° 0.1 mm 3 mps 718 mmHg 64%
    15:00 +20°C° 0.1 mm 3 mps 718 mmHg 63%
    16:00 +20°C° 0.1 mm 3 mps 718 mmHg 63%
    17:00 +19°C° 0 mm 3 mps 717 mmHg 68%
    18:00 +17°C° 0 mm 3 mps 717 mmHg 74%
    19:00 +16°C° 0 mm 2 mps 717 mmHg 80%
    20:00 +15°C° 0 mm 2 mps 718 mmHg 84%
    21:00 +14°C° 0 mm 2 mps 718 mmHg 88%
    22:00 +13°C° 0 mm 1 mps 718 mmHg 92%
    23:00 +13°C° 0 mm 1 mps 718 mmHg 92%

    22 August, Thursday

    Time Temperature Precipitation Wind Pressure Humidity
    00:00 +13°C° 0 mm 1 mps 718 mmHg 92%
    01:00 +13°C° 0 mm 1 mps 718 mmHg 92%
    02:00 +13°C° 0 mm 1 mps 718 mmHg 92%
    03:00 +12°C° 0 mm 1 mps 718 mmHg 92%
    04:00 +12°C° 0 mm 1 mps 717 mmHg 93%
    05:00 +13°C° 0 mm 1 mps 718 mmHg 89%
    06:00 +14°C° 0 mm 1 mps 718 mmHg 86%
    07:00 +15°C° 0 mm 2 mps 718 mmHg 83%
    08:00 +16°C° 0 mm 2 mps 719 mmHg 77%
    09:00 +18°C° 0 mm 2 mps 719 mmHg 71%
    10:00 +19°C° 0 mm 3 mps 719 mmHg 65%
    11:00 +20°C° 0 mm 3 mps 719 mmHg 62%
    12:00 +21°C° 0 mm 3 mps 719 mmHg 58%
    13:00 +22°C° 0 mm 3 mps 718 mmHg 55%
    14:00 +22°C° 0 mm 3 mps 718 mmHg 55%
    15:00 +22°C° 0 mm 3 mps 718 mmHg 56%
    16:00 +22°C° 0 mm 3 mps 718 mmHg 56%
    17:00 +20°C° 0 mm 3 mps 717 mmHg 63%
    18:00 +18°C° 0 mm 3 mps 717 mmHg 70%
    19:00 +16°C° 0 mm 2 mps 717 mmHg 77%
    20:00 +16°C° 0 mm 2 mps 717 mmHg 78%
    21:00 +15°C° 0 mm 2 mps 717 mmHg 80%
    22:00 +14°C° 0 mm 2 mps 717 mmHg 81%
    23:00 +13°C° 0 mm 3 mps 717 mmHg 83%
    Show more